This demonstration page uses our WeatherBlox Daily Observations layout. Learn more.

Left ArrowRight Arrow

Hourly Observations for June 24, 2021

Temp ( °F °C ) Dew Point ( °F °C ) Humidity (%) Winds ( mph kmh ) Pressure ( in mb ) Visibility ( mi km ) Precip ( " mm )
12:53 am 00:53 Clear 62 16.7 51 10.6 67 67 S 7 11 29.85 1011 10 16 N/A
1:53 am 01:53 Clear 61 16.1 50 10 67 67 N N/A 29.83 1010 10 16 N/A
2:53 am 02:53 Clear 60 15.6 51 10.6 72 72 NE 5 7 29.83 1010 10 16 N/A
3:53 am 03:53 Mostly Clear 58 14.4 50 10 75 75 undefined N/A 29.83 1010 10 16 N/A
4:53 am 04:53 Clear 52 11.1 49 9.4 89 89 SSW 8 13 29.83 1010 10 16 N/A
5:53 am 05:53 Sunny 54 12.2 50 10 87 87 WNW 3 6 29.85 1011 10 16 N/A
6:53 am 06:53 Sunny 57 13.9 51 10.6 81 81 SSW 7 11 29.83 1010 10 16 N/A
7:53 am 07:53 Sunny 64 17.8 54 12.2 70 70 SW 10 17 29.84 1011 10 16 N/A
8:53 am 08:53 Mostly Sunny 70 21.1 54 12.2 57 57 WNW 18 30 29.86 1011 10 16 N/A
9:53 am 09:53 Partly Cloudy 74 23.3 51 10.6 45 45 NNW 10 17 29.87 1011 10 16 N/A
10:53 am 10:53 Mostly Cloudy 74 23.3 53 11.7 48 48 NNW 13 20 29.89 1012 10 16 N/A
11:53 am 11:53 Mostly Cloudy 71 21.7 54 12.2 55 55 NNW 9 15 29.91 1013 10 16 N/A
12:53 pm 12:53 Mostly Cloudy 75 23.9 55 12.8 50 50 WNW 16 26 29.91 1013 10 16 N/A
1:53 pm 13:53 Mostly Cloudy 74 23.3 54 12.2 50 50 NW 15 24 29.92 1013 10 16 N/A
2:53 pm 14:53 Mostly Cloudy 75 23.9 54 12.2 48 48 NNW 23 37 29.91 1013 10 16 N/A
3:40 pm 15:40 Mostly Cloudy 73 22.8 54 12.2 51 51 N 14 22 29.85 1011 10 16 N/A
3:53 pm 15:53 Mostly Cloudy 73 22.8 54 12.2 51 51 NNE 12 19 29.94 1014 10 16 N/A
4:53 pm 16:53 Cloudy 71 21.7 54 12.2 55 55 N 15 24 29.97 1015 10 16 N/A
5:53 pm 17:53 Mostly Cloudy 68 20 54 12.2 61 61 undefined N/A 29.99 1016 10 16 N/A
6:53 pm 18:53 Mostly Cloudy 70 21.1 54 12.2 57 57 N 15 24 29.99 1016 10 16 N/A
7:53 pm 19:53 Mostly Cloudy 68 20 53 11.7 59 59 NE 10 17 30.01 1016 10 16 N/A
8:53 pm 20:53 Sunny 64 17.8 53 11.7 68 68 NNE 9 15 30.02 1017 10 16 N/A
9:53 pm 21:53 Clear 62 16.7 52 11.1 70 70 NNE 8 13 30.03 1017 10 16 N/A
10:53 pm 22:53 Clear 59 15 52 11.1 78 78 NE 6 9 30.04 1017 10 16 N/A
11:53 pm 23:53 Clear 56 13.3 52 11.1 87 87 ESE 3 6 30.05 1018 10 16 N/A

Powered by AerisWeather